Capitol Logistics 618


MROC
Juan Santamar?a International Airport
San Jose, CR
KMIA
Miami International Airport
Miami, US

Activity Log

Date Flight Route Aircraft Duration
06/21/2019 CPX718 UCA UA301 URSUS FLIPR6 B763 2h 37m

Route Details

Aircraft Information
Primary: Boeing 767-300BDSF
Backup: Not Available
Route Data
Distance: 976nm
Sched. Duration: 2h 29m
Avg. Duration: 2h 37m (+8m)
Times Flown: 1
Recm'd Route: UCA UA301 URSUS FLIPR6
Planned Altitude: 34,000ft
Origin Wx: MROC 060800Z VRB01KT 3000 BCFG BKN001 OVC010 21/21 A3003 NOSIG
Dest. Wx: KMIA 060753Z 12010KT 8SM SCT015 BKN022 BKN070 OVC190 28/26 A2996 RMK AO2 SLP147 T02780256
Notes:

Financial History
Total Freight: 80,609lbs
Average Load: 80,609lbs/flt
Fuel Used: 20,242lbs
Avg. Fuel Used: 20,242lbs/flt
Fuel Expense: $12,550
Avg. Fuel Expense: $12,550
Avg. Fuel Cost: $0.62/lbs
Total Gross Income: $145,902
Pilot Pay: $149
Total Expenses: $15,809
Total Revenue: $116,914
Average Revenue: $145,902.30